GW1851 Weather Reports


Display with metric or nautical units.
time (UTC)temp
F
wind
direction
speed
MPH
gust
MPH
rain 1hr
in
rain 24hr
in
rain mn
in
humidity
%
barometer
mb
20260503173314 69 238 2.0 6.0 0.00 0.00 0.00 47 1011.8
20260503172810 67 169 3.0 3.0 0.00 0.00 0.00 45 1012.1
20260503172308 66 228 2.0 2.0 0.00 0.00 0.00 47 1012.0
20260503171804 66 253 5.0 8.0 0.00 0.00 0.00 45 1012.4
20260503171301 67 219 3.0 5.0 0.00 0.00 0.00 44 1012.5
20260503170758 66 183 5.0 7.0 0.00 0.00 0.00 45 1012.6
20260503170254 66 227 4.0 6.0 0.00 0.00 0.00 46 1012.6
20260503160217 61 201 3.0 3.0 0.00 0.00 0.00 53 1013.1
20260503150647 58 220 1.0 1.0 0.00 0.00 0.00 57 1014.7
20260503150143 59 230 1.0 2.0 0.00 0.00 0.00 57 1014.8
20260503140107 57 204 3.0 3.0 0.00 0.00 0.00 57 1016.0
20260503131037 51 214 0.0 0.0 0.00 0.00 0.00 69 1016.8
20260503130534 51 219 1.0 1.0 0.00 0.00 0.00 69 1016.6
20260503110424 43 214 0.0 0.0 0.00 0.00 0.00 82 1016.5
20260503090310 45 211 0.0 0.0 0.00 0.00 0.00 76 1017.1
20260503081237 45 215 0.0 0.0 0.00 0.00 0.00 76 1017.0
20260503080732 45 215 0.0 0.0 0.00 0.00 0.00 76 1016.9
20260503080230 44 221 0.0 0.0 0.00 0.00 0.00 77 1017.3
20260503072706 44 213 0.0 0.0 0.00 0.00 0.00 77 1017.4
20260503072203 43 213 0.0 0.0 0.00 0.00 0.00 77 1017.4
20260503071700 43 213 0.0 0.0 0.00 0.00 0.00 77 1017.3
20260503071157 43 213 0.0 0.0 0.00 0.00 0.00 77 1017.6
20260503070653 43 213 0.0 0.0 0.00 0.00 0.00 77 1017.6
20260503070152 43 213 0.0 0.0 0.00 0.00 0.00 76 1017.5
20260503060116 44 213 0.0 0.0 0.00 0.00 0.00 73 1018.0
20260503055108 43 213 0.0 0.0 0.00 0.00 0.00 74 1018.1
20260503054603 44 213 0.0 0.0 0.00 0.00 0.00 76 1018.1
20260503054100 44 213 0.0 0.0 0.00 0.00 0.00 77 1018.1
20260503053558 43 213 0.0 0.0 0.00 0.00 0.00 76 1018.3
20260503053056 43 213 0.0 0.0 0.00 0.00 0.00 79 1018.2
20260503052553 43 213 0.0 0.0 0.00 0.00 0.00 78 1018.2
20260503052049 42 213 0.0 0.0 0.00 0.00 0.00 80 1018.4
20260503051544 42 213 0.0 0.0 0.00 0.00 0.00 84 1018.4
20260503051043 42 213 0.0 0.0 0.00 0.00 0.00 81 1018.4
20260503050538 42 213 0.0 0.0 0.00 0.00 0.00 82 1018.3
20260503050036 42 213 0.0 0.0 0.00 0.00 0.00 82 1018.3
20260503045532 42 213 0.0 0.0 0.00 0.00 0.00 80 1018.3
20260503045030 42 213 0.0 0.0 0.00 0.00 0.00 84 1018.3
20260503044526 42 213 0.0 0.0 0.00 0.00 0.00 82 1018.5
20260503044024 43 213 0.0 0.0 0.00 0.00 0.00 81 1018.3
20260503043520 42 213 0.0 0.0 0.00 0.00 0.00 81 1018.3
20260503043017 43 213 0.0 0.0 0.00 0.00 0.00 82 1018.5
20260503042514 43 213 0.0 0.0 0.00 0.00 0.00 82 1018.4
20260503042010 43 213 0.0 0.0 0.00 0.00 0.00 81 1018.5
20260503041507 43 213 0.0 0.0 0.00 0.00 0.00 79 1018.4
20260503041005 43 213 0.0 0.0 0.00 0.00 0.00 80 1018.4
20260503040502 43 213 0.0 0.0 0.00 0.00 0.00 82 1018.4
20260503035959 43 213 0.0 0.0 0.00 0.00 0.00 80 1018.5
20260503035455 43 213 0.0 0.0 0.00 0.00 0.00 80 1018.5
20260503034953 43 213 0.0 0.0 0.00 0.00 0.00 81 1018.4
20260503034450 43 213 0.0 0.0 0.00 0.00 0.00 80 1018.4
20260503033947 44 213 0.0 0.0 0.00 0.00 0.00 80 1018.5
20260503033444 44 213 0.0 0.0 0.00 0.00 0.00 80 1018.7
20260503032943 44 213 0.0 0.0 0.00 0.00 0.00 78 1018.6
20260503032441 44 213 0.0 0.0 0.00 0.00 0.00 79 1018.7
20260503031938 43 213 0.0 0.0 0.00 0.00 0.00 79 1018.8
20260503031436 44 213 0.0 0.0 0.00 0.00 0.00 78 1018.8
20260503030932 44 213 0.0 0.0 0.00 0.00 0.00 78 1018.9
20260503030429 44 213 0.0 0.0 0.00 0.00 0.00 77 1018.6
20260503025926 44 213 0.0 0.0 0.00 0.00 0.00 77 1018.7
20260503025422 44 213 0.0 0.0 0.00 0.00 0.00 76 1018.9
20260503024920 45 213 0.0 0.0 0.00 0.00 0.00 75 1018.8
20260503024416 45 213 0.0 0.0 0.00 0.00 0.00 74 1018.7
20260503023914 45 213 0.0 0.0 0.00 0.00 0.00 74 1018.9
20260503023410 45 213 0.0 0.0 0.00 0.00 0.00 74 1018.7
20260503022908 45 213 0.0 0.0 0.00 0.00 0.00 73 1018.7
20260503022402 46 213 0.0 0.0 0.00 0.00 0.00 72 1018.6
20260503021858 46 213 0.0 0.0 0.00 0.00 0.00 71 1018.6
20260503021355 47 213 0.0 0.0 0.00 0.00 0.00 69 1019.0
20260503020852 47 213 0.0 0.0 0.00 0.00 0.00 70 1018.5
20260503020350 47 213 0.0 0.0 0.00 0.00 0.00 68 1018.6
20260503015846 47 213 0.0 0.0 0.00 0.00 0.00 67 1018.6
20260503015343 48 213 0.0 0.0 0.00 0.00 0.00 65 1018.8
20260503014839 48 213 0.0 0.0 0.00 0.00 0.00 65 1018.4
20260503014336 49 213 0.0 0.0 0.00 0.00 0.00 64 1018.5
20260503013834 49 213 0.0 0.0 0.00 0.00 0.00 64 1018.4
20260503013331 49 213 0.0 0.0 0.00 0.00 0.00 62 1018.3
20260503012828 49 213 0.0 0.0 0.00 0.00 0.00 61 1018.6
20260503012326 50 213 0.0 0.0 0.00 0.00 0.00 62 1018.3
20260503011822 50 213 0.0 0.0 0.00 0.00 0.00 60 1018.3
20260503011319 51 213 0.0 0.0 0.00 0.00 0.00 57 1018.3
20260503010815 51 213 0.0 0.0 0.00 0.00 0.00 57 1018.4
20260503010313 51 213 0.0 0.0 0.00 0.00 0.00 55 1018.5
20260503005809 52 213 0.0 0.0 0.00 0.00 0.00 53 1018.3
20260503005307 52 213 0.0 0.0 0.00 0.00 0.00 52 1018.4
20260503004803 53 213 0.0 0.0 0.00 0.00 0.00 53 1018.4
20260503004301 53 213 0.0 0.0 0.00 0.00 0.00 53 1018.1
20260503003758 53 213 0.0 0.0 0.00 0.00 0.00 51 1018.2
20260503003255 54 213 0.0 0.0 0.00 0.00 0.00 51 1018.3
20260503002752 54 213 0.0 0.0 0.00 0.00 0.00 49 1018.5
20260503002249 55 218 0.0 0.0 0.00 0.00 0.00 47 1018.4
20260503001745 55 218 0.0 0.0 0.00 0.00 0.00 45 1018.4
20260503001241 56 218 0.0 0.0 0.00 0.00 0.00 46 1018.4
20260503000739 56 231 2.0 2.0 0.00 0.00 0.00 43 1018.4
20260503000236 56 226 0.0 0.0 0.00 0.00 0.00 43 1018.5
20260502235733 57 225 1.0 2.0 0.00 0.00 0.00 44 1018.6
20260502235231 57 226 0.0 0.0 0.00 0.00 0.00 46 1018.5
20260502234727 57 218 0.0 0.0 0.00 0.00 0.00 44 1018.5
20260502234225 57 218 0.0 0.0 0.00 0.00 0.00 43 1018.4
20260502233720 57 222 1.0 1.0 0.00 0.00 0.00 43 1018.5
20260502233217 57 220 0.0 0.0 0.00 0.00 0.00 43 1018.5
20260502232713 57 224 0.0 0.0 0.00 0.00 0.00 42 1018.6
20260502232211 57 222 0.0 1.0 0.00 0.00 0.00 41 1018.5
20260502231707 57 224 0.0 1.0 0.00 0.00 0.00 38 1018.7
20260502231205 58 221 2.0 3.0 0.00 0.00 0.00 39 1018.5
20260502230703 58 247 3.0 5.0 0.00 0.00 0.00 37 1018.7
20260502230201 58 225 0.0 1.0 0.00 0.00 0.00 39 1018.7
20260502225656 59 227 0.0 0.0 0.00 0.00 0.00 40 1018.6
20260502225154 59 224 1.0 1.0 0.00 0.00 0.00 37 1018.6
20260502224650 58 252 0.0 1.0 0.00 0.00 0.00 39 1018.7
20260502224147 59 163 0.0 0.0 0.00 0.00 0.00 36 1018.6
20260502223645 59 215 1.0 1.0 0.00 0.00 0.00 37 1018.8
20260502223143 58 213 1.0 2.0 0.00 0.00 0.00 35 1018.8
20260502222640 57 109 2.0 3.0 0.00 0.00 0.00 33 1018.9
20260502222137 58 217 0.0 1.0 0.00 0.00 0.00 39 1018.9
20260502221632 57 225 1.0 2.0 0.00 0.00 0.00 37 1018.7
20260502221130 58 296 2.0 2.0 0.00 0.00 0.00 38 1018.8
20260502220626 58 213 1.0 1.0 0.00 0.00 0.00 34 1018.8
20260502220122 58 228 0.0 0.0 0.00 0.00 0.00 36 1018.8
20260502215619 58 211 1.0 1.0 0.00 0.00 0.00 34 1018.7
20260502215116 58 239 0.0 0.0 0.00 0.00 0.00 40 1018.7
20260502214613 57 225 1.0 1.0 0.00 0.00 0.00 37 1018.8
20260502214111 58 219 1.0 2.0 0.00 0.00 0.00 39 1019.1
20260502213608 58 226 2.0 2.0 0.00 0.00 0.00 38 1018.9
20260502213105 58 226 0.0 1.0 0.00 0.00 0.00 39 1018.8
20260502212604 58 244 3.0 5.0 0.00 0.00 0.00 35 1019.0
20260502212101 58 255 2.0 3.0 0.00 0.00 0.00 35 1019.0
20260502211556 59 258 4.0 6.0 0.00 0.00 0.00 38 1018.9
20260502211054 59 345 4.0 5.0 0.00 0.00 0.00 35 1018.9
20260502210551 58 216 1.0 1.0 0.00 0.00 0.00 35 1018.9
20260502210048 59 246 1.0 1.0 0.00 0.00 0.00 34 1019.1
20260502205544 59 229 1.0 2.0 0.00 0.00 0.00 37 1019.2
20260502205042 59 242 1.0 2.0 0.00 0.00 0.00 35 1019.1
20260502204538 59 220 1.0 1.0 0.00 0.00 0.00 36 1019.2
20260502204036 57 227 0.0 0.0 0.00 0.00 0.00 34 1019.2
20260502203533 58 84 3.0 3.0 0.00 0.00 0.00 33 1019.3
20260502203030 60 306 1.0 2.0 0.00 0.00 0.00 40 1019.2
20260502202526 60 312 4.0 6.0 0.00 0.00 0.00 33 1019.3
20260502202025 60 76 2.0 3.0 0.00 0.00 0.00 33 1019.3
20260502201520 60 223 2.0 2.0 0.00 0.00 0.00 32 1019.5
20260502201016 60 240 1.0 1.0 0.00 0.00 0.00 38 1019.6
20260502200513 58 151 1.0 1.0 0.00 0.00 0.00 34 1019.8
20260502200011 60 233 2.0 2.0 0.00 0.00 0.00 35 1020.0
20260502195508 59 237 0.0 1.0 0.00 0.00 0.00 33 1019.6
20260502195003 60 223 3.0 5.0 0.00 0.00 0.00 33 1019.9
20260502194501 59 232 0.0 1.0 0.00 0.00 0.00 33 1019.8
20260502193956 58 308 3.0 3.0 0.00 0.00 0.00 38 1019.9
20260502193454 57 300 1.0 2.0 0.00 0.00 0.00 39 1019.8
20260502192949 57 148 1.0 2.0 0.00 0.00 0.00 37 1020.0
20260502192447 58 205 1.0 1.0 0.00 0.00 0.00 41 1020.1
20260502191943 58 206 1.0 1.0 0.00 0.00 0.00 36 1020.1
20260502191441 59 247 3.0 5.0 0.00 0.00 0.00 41 1019.9
20260502190939 59 224 0.0 1.0 0.00 0.00 0.00 40 1020.0
20260502190436 59 45 2.0 3.0 0.00 0.00 0.00 38 1020.0
20260502185932 60 346 2.0 5.0 0.00 0.00 0.00 38 1020.1
20260502185427 59 198 1.0 2.0 0.00 0.00 0.00 38 1020.0
20260502184925 58 218 1.0 2.0 0.00 0.00 0.00 38 1020.3
20260502184420 57 215 2.0 3.0 0.00 0.00 0.00 38 1020.6
20260502183917 55 226 1.0 1.0 0.00 0.00 0.00 43 1020.5
20260502183413 56 224 1.0 1.0 0.00 0.00 0.00 42 1020.5
20260502182909 55 273 1.0 1.0 0.00 0.00 0.00 45 1020.4
20260502182404 55 166 3.0 3.0 0.00 0.00 0.00 42 1020.3
20260502181901 55 242 1.0 2.0 0.00 0.00 0.00 43 1020.4
20260502181359 57 274 1.0 2.0 0.00 0.00 0.00 43 1020.5
20260502180857 58 53 1.0 3.0 0.00 0.00 0.00 43 1020.4
20260502180354 59 204 2.0 2.0 0.00 0.00 0.00 43 1020.5